This demonstration page uses our WeatherBlox Daily Observations layout. Learn more.

Left ArrowRight Arrow

39.92423, -83.80882

Hourly Observations for March 1, 2021

Temp ( °F °C ) Dew Point ( °F °C ) Humidity (%) Winds ( mph kmh ) Pressure ( in mb ) Visibility ( mi km ) Precip ( " mm )
12:11 am 00:11 Cloudy with Light Rain 48 9 46 8 94 94 WNW 14 22 29.82 1010 10 16 N/A
12:56 am 00:56 Cloudy with Light Rain 46 7.8 44 6.7 93 93 WNW 14 22 29.83 1010 10 16 N/A
1:30 am 01:30 Cloudy with Light Rain 45 7 45 7 100 100 NW 21 33 29.85 1011 10 16 N/A
1:56 am 01:56 Cloudy 42 5.6 41 5 96 96 NW 16 26 29.88 1012 10 16 N/A
2:07 am 02:07 Cloudy 41 5 39 4 93 93 WNW 15 24 29.90 1013 10 16 N/A
2:15 am 02:15 Cloudy 41 5 39 4 93 93 WNW 16 26 29.91 1013 10 16 N/A
2:56 am 02:56 Cloudy 39 3.9 38 3.3 96 96 NW 14 22 29.91 1013 8 13 N/A
3:35 am 03:35 Cloudy 37 3 37 3 100 100 NW 18 30 29.93 1014 9 14 N/A
3:56 am 03:56 Cloudy 38 3.3 36 2.2 93 93 NW 12 19 29.92 1013 10 16 N/A
4:56 am 04:56 Cloudy 38 3.3 35 1.7 89 89 NW 13 20 29.93 1014 10 16 N/A
5:56 am 05:56 Cloudy 37 2.8 33 0.6 86 86 WNW 15 24 29.97 1015 10 16 N/A
6:56 am 06:56 Mostly Cloudy 35 1.7 32 undefined 89 89 NW 13 20 29.99 1016 10 16 N/A
7:56 am 07:56 Cloudy 35 1.7 33 0.6 93 93 WNW 10 17 30.04 1017 10 16 N/A
8:56 am 08:56 Mostly Cloudy 34 1.1 31 -0.6 89 89 WNW 18 30 30.07 1018 10 16 N/A
9:05 am 09:05 Partly Cloudy 34 1 30 -1 87 87 WNW 15 24 30.11 1020 10 16 N/A
9:54 am 09:54 Mostly Cloudy 36 2 32 undefined 87 87 WNW 15 24 30.12 1020 10 16 N/A
9:56 am 09:56 Mostly Cloudy 36 2.2 32 undefined 86 86 WNW 13 20 30.10 1019 10 16 N/A
10:51 am 10:51 Partly Cloudy 37 3 30 -1 75 75 WNW 16 26 30.13 1020 10 16 N/A
10:56 am 10:56 Mostly Cloudy 37 2.8 32 undefined 82 82 WNW 14 22 30.12 1020 10 16 N/A
11:30 am 11:30 Partly Cloudy 37 3 30 -1 75 75 WNW 20 31 30.13 1020 10 16 N/A
11:56 am 11:56 Sunny 39 3.9 29 -1.7 67 67 WNW 16 26 30.11 1020 10 16 N/A
12:56 pm 12:56 Sunny 41 5 28 -2.2 60 60 WNW 15 24 30.13 1020 10 16 N/A
1:56 pm 13:56 Sunny 43 6.1 28 -2.2 56 56 NW 17 28 30.13 1020 10 16 N/A
2:56 pm 14:56 Partly Cloudy 43 6.1 25 -3.9 49 49 WNW 23 37 30.15 1021 10 16 N/A
3:56 pm 15:56 Sunny 42 5.6 23 -5 47 47 WNW 29 46 30.18 1022 10 16 N/A
4:56 pm 16:56 Mostly Cloudy 39 3.9 23 -5 53 53 NW 20 31 30.19 1023 10 16 N/A
5:56 pm 17:56 Mostly Cloudy 36 2.2 23 -5 59 59 NW 13 20 30.24 1024 10 16 N/A
6:56 pm 18:56 Mostly Clear 34 1.1 24 -4.4 67 67 NW 14 22 30.26 1025 10 16 N/A
7:56 pm 19:56 Mostly Clear 32 undefined 24 -4.4 73 73 NW 14 22 30.30 1026 10 16 N/A
8:56 pm 20:56 Clear 30 -1.1 23 -5 75 75 NW 10 17 30.33 1027 10 16 N/A
9:56 pm 21:56 Clear 28 -2.2 22 -5.6 78 78 NW 15 24 30.35 1028 10 16 N/A
10:56 pm 22:56 Clear 27 -2.8 20 -6.7 75 75 NW 10 17 30.37 1029 10 16 N/A
11:56 pm 23:56 Clear 26 -3.3 19 -7.2 75 75 NW 9 15 30.38 1029 10 16 N/A

Powered by AerisWeather